TimePDT,TemperatureF,Dew PointF,Humidity,Sea Level PressureIn,VisibilityMPH,Wind Direction,Wind SpeedMPH,Gust SpeedMPH,PrecipitationIn,Events,Conditions,WindDirDegrees,DateUTC
12:53 AM,51.1,12.9,22,30.21,10.0,ENE,3.5,-,N/A,,Clear,60,2013-10-06 07:53:00
1:53 AM,48.0,10.9,22,30.21,10.0,SSW,6.9,-,N/A,,Clear,210,2013-10-06 08:53:00
2:53 AM,46.0,12.0,25,30.20,10.0,SSW,4.6,-,N/A,,Clear,210,2013-10-06 09:53:00
3:53 AM,45.0,12.9,27,30.18,10.0,Calm,Calm,-,N/A,,Clear,0,2013-10-06 10:53:00
4:53 AM,43.0,12.0,28,30.19,10.0,Calm,Calm,-,N/A,,Clear,0,2013-10-06 11:53:00
5:53 AM,42.1,12.9,31,30.20,10.0,Calm,Calm,-,N/A,,Clear,0,2013-10-06 12:53:00
6:53 AM,41.0,12.0,31,30.22,10.0,SW,3.5,-,N/A,,Clear,230,2013-10-06 13:53:00
7:53 AM,48.0,14.0,26,30.22,10.0,Calm,Calm,-,N/A,,Clear,0,2013-10-06 14:53:00
8:53 AM,57.9,12.9,17,30.22,10.0,Calm,Calm,-,N/A,,Clear,0,2013-10-06 15:53:00
9:53 AM,62.1,10.9,13,30.22,10.0,Calm,Calm,-,N/A,,Clear,0,2013-10-06 16:53:00
10:53 AM,66.9,14.0,13,30.21,10.0,North,4.6,-,N/A,,Clear,360,2013-10-06 17:53:00
11:53 AM,73.0,15.1,11,30.17,10.0,NNE,8.1,-,N/A,,Clear,30,2013-10-06 18:53:00
12:53 PM,78.1,12.0,8,30.14,10.0,NNE,11.5,-,N/A,,Clear,20,2013-10-06 19:53:00
1:53 PM,80.1,8.1,6,30.10,10.0,ENE,8.1,20.7,N/A,,Clear,70,2013-10-06 20:53:00
2:53 PM,81.0,5.0,5,30.09,10.0,ENE,6.9,16.1,N/A,,Clear,70,2013-10-06 21:53:00
3:53 PM,82.0,5.0,5,30.07,10.0,Variable,5.8,-,N/A,,Clear,0,2013-10-06 22:53:00
4:53 PM,82.0,6.1,6,30.06,10.0,Variable,4.6,-,N/A,,Clear,0,2013-10-06 23:53:00
5:53 PM,80.1,6.1,6,30.06,10.0,NNE,5.8,-,N/A,,Clear,30,2013-10-07 00:53:00
6:53 PM,75.0,8.1,8,30.06,10.0,NE,3.5,-,N/A,,Clear,40,2013-10-07 01:53:00
7:53 PM,64.9,8.1,11,30.06,10.0,SSW,5.8,-,N/A,,Clear,200,2013-10-07 02:53:00
8:53 PM,62.1,12.0,14,30.06,10.0,SSW,8.1,-,N/A,,Clear,200,2013-10-07 03:53:00
9:53 PM,59.0,17.1,20,30.06,10.0,SSW,5.8,-,N/A,,Clear,210,2013-10-07 04:53:00
10:53 PM,55.0,10.0,17,30.06,10.0,SSW,3.5,-,N/A,,Clear,200,2013-10-07 05:53:00
11:53 PM,57.9,15.1,19,30.03,10.0,South,6.9,-,N/A,,Clear,190,2013-10-07 06:53:00